| time (UTC) | temp F | wind direction | speed MPH | gust MPH | rain 1hr in | rain 24hr in | rain mn in | humidity % | barometer mb |
| 20260506210030 | 71 | 342 | 8.0 | 19.0 | 0.00 | 0.00 | 0.00 | 54 | 1018.6 |
| 20260506204530 | 70 | 7 | 8.0 | 19.0 | 0.00 | 0.00 | 0.00 | 54 | 1018.8 |
| 20260506203030 | 70 | 2 | 9.0 | 16.0 | 0.00 | 0.00 | 0.00 | 54 | 1019.0 |
| 20260506201540 | 69 | 340 | 8.0 | 18.0 | 0.00 | 0.00 | 0.00 | 56 | 1019.2 |
| 20260506200037 | 69 | 348 | 9.0 | 18.0 | 0.00 | 0.00 | 0.00 | 57 | 1019.2 |
| 20260506194532 | 68 | 348 | 9.0 | 21.0 | 0.00 | 0.00 | 0.00 | 59 | 1019.2 |
| 20260506193030 | 68 | 336 | 10.0 | 21.0 | 0.00 | 0.00 | 0.00 | 59 | 1019.2 |
| 20260506191531 | 67 | 344 | 9.0 | 19.0 | 0.00 | 0.00 | 0.00 | 61 | 1019.4 |
| 20260506190031 | 67 | 342 | 9.0 | 18.0 | 0.00 | 0.00 | 0.00 | 63 | 1019.4 |
| 20260506184536 | 66 | 334 | 10.0 | 21.0 | 0.00 | 0.00 | 0.00 | 64 | 1019.4 |
| 20260506183107 | 66 | 322 | 12.0 | 24.0 | 0.00 | 0.00 | 0.00 | 64 | 1019.3 |
| 20260506181530 | 66 | 337 | 8.0 | 15.0 | 0.00 | 0.00 | 0.00 | 66 | 1019.3 |
| 20260506180029 | 65 | 331 | 9.0 | 20.0 | 0.00 | 0.00 | 0.00 | 67 | 1019.4 |
| 20260506174606 | 65 | 335 | 8.0 | 20.0 | 0.00 | 0.00 | 0.00 | 70 | 1019.4 |
| 20260506173029 | 64 | 335 | 9.0 | 20.0 | 0.00 | 0.00 | 0.00 | 69 | 1019.4 |
| 20260506171531 | 65 | 323 | 8.0 | 15.0 | 0.00 | 0.00 | 0.00 | 70 | 1019.3 |
| 20260506163033 | 63 | 334 | 7.0 | 13.0 | 0.00 | 0.00 | 0.00 | 73 | 1019.4 |
| 20260506161607 | 62 | 332 | 7.0 | 16.0 | 0.00 | 0.00 | 0.00 | 74 | 1019.7 |
| 20260506160030 | 62 | 336 | 8.0 | 18.0 | 0.00 | 0.00 | 0.00 | 76 | 1019.6 |
| 20260506154530 | 61 | 325 | 7.0 | 14.0 | 0.00 | 0.00 | 0.00 | 78 | 1019.5 |
| 20260506150030 | 57 | 247 | 0.0 | 1.0 | 0.00 | 0.00 | 0.00 | 89 | 1019.4 |
| 20260506141540 | 54 | 244 | 0.0 | 6.0 | 0.00 | 0.00 | 0.00 | 88 | 1019.6 |
| 20260506134530 | 52 | 194 | 3.0 | 7.0 | 0.00 | 0.00 | 0.00 | 94 | 1019.4 |
| 20260506133033 | 48 | 181 | 2.0 | 6.0 | 0.00 | 0.00 | 0.00 | 96 | 1019.3 |
| 20260506131607 | 47 | 84 | 0.0 | 3.0 | 0.00 | 0.00 | 0.00 | 96 | 1019.2 |
| 20260506130146 | 47 | 104 | 1.0 | 4.0 | 0.00 | 0.00 | 0.00 | 96 | 1019.2 |
| 20260506124532 | 47 | 112 | 0.0 | 2.0 | 0.00 | 0.00 | 0.00 | 96 | 1019.0 |
| 20260506123032 | 48 | 121 | 0.0 | 3.0 | 0.00 | 0.00 | 0.00 | 96 | 1018.9 |
| 20260506121531 | 49 | 129 | 2.0 | 6.0 | 0.00 | 0.00 | 0.00 | 96 | 1018.7 |
| 20260506120030 | 48 | 126 | 4.0 | 7.0 | 0.00 | 0.00 | 0.00 | 95 | 1018.6 |
| 20260506114529 | 48 | 135 | 3.0 | 5.0 | 0.00 | 0.00 | 0.00 | 95 | 1018.5 |
| 20260506113031 | 48 | 135 | 1.0 | 4.0 | 0.00 | 0.00 | 0.00 | 95 | 1018.3 |
| 20260506111531 | 49 | 135 | 1.0 | 4.0 | 0.00 | 0.00 | 0.00 | 94 | 1018.2 |
| 20260506110029 | 49 | 135 | 2.0 | 6.0 | 0.00 | 0.00 | 0.00 | 94 | 1018.0 |
| 20260506104622 | 0 | 0 | 0.0 | 0.0 | 0.00 | 0.00 | 0.00 | 100 | |
| 20260506103031 | 49 | 135 | 2.0 | 5.0 | 0.00 | 0.00 | 0.00 | 94 | 1017.8 |
| 20260506101529 | 50 | 123 | 2.0 | 4.0 | 0.00 | 0.00 | 0.00 | 94 | 1017.7 |
| 20260506100051 | 50 | 135 | 2.0 | 4.0 | 0.00 | 0.00 | 0.00 | 94 | 1017.7 |
| 20260506094533 | 50 | 135 | 1.0 | 4.0 | 0.00 | 0.00 | 0.00 | 93 | 1017.6 |
| 20260506093029 | 50 | 96 | 0.0 | 4.0 | 0.00 | 0.00 | 0.00 | 93 | 1017.6 |
| 20260506091605 | 50 | 90 | 0.0 | 2.0 | 0.00 | 0.00 | 0.00 | 92 | 1017.6 |
| 20260506090029 | 50 | 90 | 1.0 | 4.0 | 0.00 | 0.00 | 0.00 | 92 | 1017.5 |
| 20260506084530 | 50 | 70 | 0.0 | 4.0 | 0.00 | 0.00 | 0.00 | 91 | 1017.5 |
| 20260506083029 | 51 | 76 | 1.0 | 4.0 | 0.00 | 0.00 | 0.00 | 90 | 1017.3 |
| 20260506080106 | 51 | 90 | 1.0 | 4.0 | 0.00 | 0.00 | 0.00 | 88 | 1017.1 |
| 20260506073032 | 54 | 89 | 1.0 | 5.0 | 0.00 | 0.00 | 0.00 | 86 | 1016.9 |
| 20260506071531 | 54 | 74 | 3.0 | 7.0 | 0.00 | 0.00 | 0.00 | 85 | 1016.8 |
| 20260506061531 | 56 | 44 | 3.0 | 7.0 | 0.00 | 0.00 | 0.00 | 83 | 1016.4 |
| 20260506060108 | 56 | 76 | 3.0 | 7.0 | 0.00 | 0.00 | 0.00 | 81 | 1016.3 |
| 20260506050108 | 57 | 57 | 5.0 | 8.0 | 0.00 | 0.00 | 0.00 | 78 | 1015.7 |
| 20260506044608 | 58 | 66 | 4.0 | 10.0 | 0.00 | 0.00 | 0.00 | 78 | 1015.6 |
| 20260506043030 | 58 | 69 | 4.0 | 9.0 | 0.00 | 0.00 | 0.00 | 77 | 1015.4 |
| 20260506041602 | 59 | 77 | 5.0 | 9.0 | 0.00 | 0.00 | 0.00 | 75 | 1015.4 |
| 20260506040039 | 59 | 69 | 6.0 | 13.0 | 0.00 | 0.00 | 0.00 | 74 | 1015.1 |
| 20260506034529 | 60 | 65 | 6.0 | 12.0 | 0.00 | 0.00 | 0.00 | 73 | 1014.9 |
| 20260506031531 | 62 | 61 | 6.0 | 12.0 | 0.00 | 0.00 | 0.00 | 70 | 1014.4 |
| 20260506030031 | 63 | 62 | 7.0 | 12.0 | 0.00 | 0.00 | 0.00 | 68 | 1014.1 |
| 20260506024605 | 64 | 57 | 7.0 | 13.0 | 0.00 | 0.00 | 0.00 | 67 | 1013.9 |
| 20260506023035 | 64 | 55 | 7.0 | 14.0 | 0.00 | 0.00 | 0.00 | 66 | 1013.7 |
| 20260506020030 | 66 | 58 | 8.0 | 16.0 | 0.00 | 0.00 | 0.00 | 63 | 1013.5 |
| 20260506014530 | 67 | 59 | 8.0 | 17.0 | 0.00 | 0.00 | 0.00 | 61 | 1013.5 |
| 20260506011530 | 68 | 49 | 7.0 | 13.0 | 0.00 | 0.00 | 0.00 | 59 | 1013.4 |
| 20260506010030 | 69 | 46 | 7.0 | 14.0 | 0.00 | 0.00 | 0.00 | 59 | 1013.4 |
| 20260506004607 | 69 | 48 | 9.0 | 14.0 | 0.00 | 0.00 | 0.00 | 58 | 1013.3 |
| 20260506003029 | 70 | 40 | 7.0 | 13.0 | 0.00 | 0.00 | 0.00 | 58 | 1013.2 |
| 20260506001542 | 70 | 45 | 6.0 | 11.0 | 0.00 | 0.00 | 0.00 | 59 | 1013.2 |
| 20260506000030 | 70 | 42 | 7.0 | 12.0 | 0.00 | 0.00 | 0.00 | 59 | 1013.4 |
| 20260505234530 | 70 | 44 | 7.0 | 13.0 | 0.00 | 0.00 | 0.00 | 59 | 1013.5 |
| 20260505233031 | 71 | 46 | 8.0 | 13.0 | 0.00 | 0.00 | 0.00 | 59 | 1013.5 |
| 20260505231606 | 71 | 43 | 7.0 | 15.0 | 0.00 | 0.00 | 0.00 | 58 | 1013.5 |
| 20260505230031 | 72 | 25 | 6.0 | 12.0 | 0.00 | 0.00 | 0.00 | 59 | 1013.7 |
| 20260505224531 | 72 | 29 | 6.0 | 13.0 | 0.00 | 0.00 | 0.00 | 59 | 1013.7 |
| 20260505221606 | 71 | 33 | 6.0 | 12.0 | 0.00 | 0.00 | 0.00 | 59 | 1014.0 |
| 20260505220030 | 71 | 10 | 5.0 | 10.0 | 0.00 | 0.00 | 0.00 | 59 | 1014.1 |
| 20260505214644 | 71 | 351 | 6.0 | 13.0 | 0.00 | 0.00 | 0.00 | 58 | 1014.3 |
| 20260505213028 | 71 | 349 | 5.0 | 10.0 | 0.00 | 0.00 | 0.00 | 58 | 1014.3 |